This is the latest recevied weather packets stored in our database for station/object DL2MWB-13. If no packets are shown the sender has not sent any weather packets the latest 10 day(s).
| Time | Temp. | Humidity | Pressure | Rain* | Wind** | Luminosity | Snow |
|---|---|---|---|---|---|---|---|
| 1777739309 | 21.67° C | 31% | 1023 hPa | - | - | - | - |
| 1777738705 | 21.67° C | 31% | 1023 hPa | - | - | - | - |
| 1777737498 | 21.67° C | 31% | 1023 hPa | - | - | - | - |
| 1777736895 | 22.22° C | 30% | 1024 hPa | - | - | - | - |
| 1777736291 | 22.22° C | 32% | 1024 hPa | - | - | - | - |
| 1777735688 | 22.22° C | 30% | 1024 hPa | - | - | - | - |
| 1777735084 | 22.22° C | 29% | 1024 hPa | - | - | - | - |
| 1777734481 | 22.22° C | 29% | 1024 hPa | - | - | - | - |
| 1777733877 | 22.22° C | 29% | 1024 hPa | - | - | - | - |
| 1777733274 | 22.22° C | 30% | 1024 hPa | - | - | - | - |
| 1777732670 | 22.78° C | 29% | 1024 hPa | - | - | - | - |
| 1777732067 | 22.78° C | 28% | 1024 hPa | - | - | - | - |
| 1777731463 | 22.78° C | 28% | 1024 hPa | - | - | - | - |
| 1777730860 | 22.78° C | 29% | 1025 hPa | - | - | - | - |
| 1777730256 | 22.22° C | 33% | 1025 hPa | - | - | - | - |
| 1777729653 | 22.22° C | 27% | 1025 hPa | - | - | - | - |
| 1777729049 | 21.11° C | 30% | 1025 hPa | - | - | - | - |
| 1777728447 | 21.67° C | 29% | 1025 hPa | - | - | - | - |
| 1777727842 | 21.67° C | 30% | 1025 hPa | - | - | - | - |
| 1777727239 | 21.67° C | 31% | 1025 hPa | - | - | - | - |
| 1777726635 | 21.67° C | 31% | 1025 hPa | - | - | - | - |
| 1777726032 | 22.22° C | 33% | 1025 hPa | - | - | - | - |
| 1777725428 | 20.56° C | 33% | 1026 hPa | - | - | - | - |
| 1777724825 | 20.56° C | 35% | 1026 hPa | - | - | - | - |
| 1777724221 | 20° C | 33% | 1026 hPa | - | - | - | - |
* Rain since midnight (hover to see other rain measurements)
** Current wind speed in m/s (hover to see current wind gust speed)